Orbital Elements at Epoch 2459000.5 (2020-May-31.0) TDB
Reference: JPL 25 (heliocentric ecliptic J2000)
Element | Value | Uncertainty (1-sigma) | Units |
e | .1986338125674642 | 3.4847e-08 | |
a | 2.365631114940245 | 1.034e-08 | au |
q | 1.895736787451443 | 8.4152e-08 | au |
i | 3.325784989499915 | 3.9763e-06 | deg |
node | 91.44977873900189 | 6.8368e-05 | deg |
peri | 219.2624134436979 | 6.9081e-05 | deg |
M | 276.629504970181 | 9.9444e-06 | deg |
tp | 2459308.271812403251 (2021-Apr-03.77181240) | 3.7135e-05 | TDB |
period | 1328.98158305935 3.64 | 8.7137e-06 2.386e-08 | d yr |
n | .270884115016305 | 1.7761e-09 | deg/d |
Q | 2.835525442429046 | 1.2394e-08 | au |
|
| | Orbit Determination Parameters
Additional Information
|